Location: Carrières
(48.9495°N, 2.0407°E)
Time: 19:21:05
(UTC+00:00)

Cosmos 1023 Rocket - Pass Details

Date: 28 January 2023
Orbit: 735 x 771 km, 74.1° (Epoch: 25 March)

Event Time Altitude Azimuth Distance (km) Brightness Sun altitude
Rises 18:13:47 0° 192° (SSW) 3,199 8.0 -15.0°
Reaches altitude 10° 18:16:10 10° 189° (S) 2,273 7.2 -15.4°
Maximum altitude 18:21:15 64° 109° (ESE) 827 4.4 -16.2°
Enters shadow 18:25:44 13° 29° (NNE) 2,041 6.4 -16.9°
